Find Starlink 36730

NORAD ID: 67874 Int'l Des: 2026-034 Owner: SPXS Country: US Constellation: starlink operational
LEOCIRCULAR

現在のビュー

3D地球を読み込み中...

Starlink 36730について

説明を読み込み中...

次回通過

Passes for default location (London). Set your location on the main map for personalized predictions.

高度履歴

Loading altitude history...

軌道要素

1 67874U 26034AA 26145.44672205 .00018285 00000-0 55077-3 0 9996
2 67874 53.1575 205.8603 0001043 56.9877 303.1225 15.34412880 15811
Epoch: May 25, 2026 • Age: 23 hours

現在のステータス

高度 480.6 km
速度 7.62 km/s
衛星直下点 -50.21°S, 55.27°E
打ち上げ日 Feb 20, 2026
運用期間 0.2 years
タイプ internet

技術仕様

分類 Payload
質量 575.00 kg
乾燥質量 530.00 kg
総質量 575.00 kg
長さ 0.30 m
直径 4.10 m
スパン 29.00 m
形状 Box + pan
製造者 SPXS
バスタイプ Starlink V2MO
フェーズステータス In Orbit
所有者/国 SPXS/US

Most Searched